Location: Champseau
(45.8333°N, 1.7667°E)
Time: 15:13:07
(UTC+00:00)

Tiangong - Visible Passes

Search period start: 23 September 2021 00:00
Search period end: 03 October 2021 00:00
Orbit: 382 x 385 km, 41.5° (Epoch: 22 September)

Date Brightness Start Highest point End Pass type
(mag) Time Alt. Az. Time Alt. Az. Time Alt. Az.
25 Sep 3.9 04:59:39 10° S 05:00:48 12° SSE 05:01:58 10° SE visible
27 Sep 3.4 04:35:26 10° SSW 04:37:35 17° SSE 04:39:44 10° ESE visible
28 Sep 4.0 03:38:29 11° SE 03:38:29 11° SE 03:39:06 10° SE visible
28 Sep 2.5 05:11:20 10° SW 05:14:09 29° SSE 05:16:58 10° ESE visible
29 Sep 2.7 04:13:45 22° S 04:14:24 23° SSE 04:17:00 10° ESE visible
30 Sep 4.3 03:16:47 10° ESE 03:16:47 10° ESE 03:16:51 10° ESE visible
30 Sep 2.2 04:48:59 16° SW 04:51:03 35° S 04:53:58 10° ESE visible
01 Oct 2.8 03:51:59 26° SE 03:51:59 26° SE 03:54:05 10° ESE visible
02 Oct 2.0 04:27:10 31° SW 04:27:56 37° S 04:30:54 10° ESE visible
